| time (UTC) | temp F | wind direction | speed MPH | gust MPH | rain 1hr in | rain 24hr in | rain mn in | humidity % | barometer mb |
| 20260906165448 | 93 | 138 | 2.0 | 3.0 | 0.00 | 0.00 | 0.00 | 61 | 1012.3 |
| 20260906164943 | 93 | 261 | 0.0 | 0.0 | 0.00 | 0.00 | 0.00 | 57 | 1012.4 |
| 20260906164442 | 93 | 296 | 1.0 | 1.0 | 0.00 | 0.00 | 0.00 | 59 | 1012.6 |
| 20260906163939 | 92 | 313 | 2.0 | 2.0 | 0.00 | 0.00 | 0.00 | 62 | 1012.7 |
| 20260906163434 | 91 | 267 | 1.0 | 2.0 | 0.00 | 0.00 | 0.00 | 62 | 1012.8 |
| 20260906162932 | 91 | 312 | 1.0 | 1.0 | 0.00 | 0.00 | 0.00 | 63 | 1012.8 |
| 20260906162431 | 91 | 293 | 1.0 | 2.0 | 0.00 | 0.00 | 0.00 | 63 | 1012.8 |
| 20260906161927 | 91 | 54 | 1.0 | 2.0 | 0.00 | 0.00 | 0.00 | 63 | 1012.8 |
| 20260906161426 | 91 | 67 | 0.0 | 0.0 | 0.00 | 0.00 | 0.00 | 65 | 1013.0 |
| 20260906160926 | 91 | 336 | 1.0 | 2.0 | 0.00 | 0.00 | 0.00 | 64 | 1012.8 |
| 20260906160425 | 91 | 167 | 0.0 | 0.0 | 0.00 | 0.00 | 0.00 | 64 | 1013.1 |
| 20260906155923 | 90 | 124 | 1.0 | 1.0 | 0.00 | 0.00 | 0.00 | 63 | 1012.8 |
| 20260906155422 | 89 | 315 | 0.0 | 0.0 | 0.00 | 0.00 | 0.00 | 66 | 1013.0 |
| 20260906154919 | 89 | 322 | 0.0 | 1.0 | 0.00 | 0.00 | 0.00 | 68 | 1013.1 |
| 20260906154418 | 90 | 320 | 1.0 | 1.0 | 0.00 | 0.00 | 0.00 | 68 | 1013.1 |
| 20260906153917 | 91 | 231 | 1.0 | 1.0 | 0.00 | 0.00 | 0.00 | 66 | 1013.1 |
| 20260906153416 | 91 | 235 | 3.0 | 3.0 | 0.00 | 0.00 | 0.00 | 66 | 1013.2 |
| 20260906152912 | 91 | 250 | 0.0 | 0.0 | 0.00 | 0.00 | 0.00 | 65 | 1013.4 |
| 20260906152406 | 91 | 266 | 2.0 | 3.0 | 0.00 | 0.00 | 0.00 | 65 | 1013.1 |
| 20260906151906 | 89 | 254 | 0.0 | 1.0 | 0.00 | 0.00 | 0.00 | 67 | 1013.1 |
| 20260906151401 | 89 | 23 | 2.0 | 3.0 | 0.00 | 0.00 | 0.00 | 68 | 1013.1 |
| 20260906150857 | 89 | 357 | 2.0 | 2.0 | 0.00 | 0.00 | 0.00 | 67 | 1013.0 |
| 20260906150352 | 89 | 337 | 4.0 | 4.0 | 0.00 | 0.00 | 0.00 | 69 | 1013.2 |
| 20260906145851 | 90 | 31 | 4.0 | 4.0 | 0.00 | 0.00 | 0.00 | 67 | 1013.1 |
| 20260906145350 | 90 | 330 | 1.0 | 2.0 | 0.00 | 0.00 | 0.00 | 70 | 1013.1 |
| 20260906144845 | 89 | 208 | 2.0 | 3.0 | 0.00 | 0.00 | 0.00 | 68 | 1013.1 |
| 20260906144340 | 89 | 324 | 1.0 | 2.0 | 0.00 | 0.00 | 0.00 | 70 | 1013.1 |
| 20260906143840 | 88 | 211 | 1.0 | 2.0 | 0.00 | 0.00 | 0.00 | 74 | 1013.0 |
| 20260906143336 | 87 | 320 | 1.0 | 1.0 | 0.00 | 0.00 | 0.00 | 73 | 1013.1 |
| 20260906142832 | 87 | 290 | 2.0 | 3.0 | 0.00 | 0.00 | 0.00 | 75 | 1013.1 |
| 20260906142327 | 87 | 282 | 1.0 | 1.0 | 0.00 | 0.00 | 0.00 | 76 | 1013.2 |
| 20260906141826 | 87 | 332 | 1.0 | 2.0 | 0.00 | 0.00 | 0.00 | 76 | 1013.1 |
| 20260906141321 | 87 | 317 | 3.0 | 3.0 | 0.00 | 0.00 | 0.00 | 77 | 1013.2 |
| 20260906140819 | 86 | 209 | 2.0 | 2.0 | 0.00 | 0.00 | 0.00 | 78 | 1013.0 |
| 20260906140315 | 86 | 227 | 0.0 | 1.0 | 0.00 | 0.00 | 0.00 | 79 | 1013.1 |
| 20260906135813 | 85 | 260 | 2.0 | 2.0 | 0.00 | 0.00 | 0.00 | 80 | 1013.2 |
| 20260906135308 | 85 | 340 | 4.0 | 4.0 | 0.00 | 0.00 | 0.00 | 81 | 1013.1 |
| 20260906134803 | 84 | 318 | 3.0 | 4.0 | 0.00 | 0.00 | 0.00 | 82 | 1013.0 |
| 20260906134258 | 84 | 357 | 3.0 | 4.0 | 0.00 | 0.00 | 0.00 | 83 | 1013.2 |
| 20260906133754 | 84 | 324 | 2.0 | 2.0 | 0.00 | 0.00 | 0.00 | 83 | 1013.1 |
| 20260906133249 | 83 | 329 | 3.0 | 3.0 | 0.00 | 0.00 | 0.00 | 84 | 1013.3 |
| 20260906132744 | 83 | 327 | 1.0 | 1.0 | 0.00 | 0.00 | 0.00 | 86 | 1013.4 |
| 20260906132240 | 83 | 305 | 1.0 | 2.0 | 0.00 | 0.00 | 0.00 | 86 | 1013.4 |
| 20260906131735 | 82 | 343 | 2.0 | 2.0 | 0.00 | 0.00 | 0.00 | 88 | 1013.4 |
| 20260906131230 | 81 | 259 | 2.0 | 2.0 | 0.00 | 0.00 | 0.00 | 89 | 1013.3 |
| 20260906130726 | 81 | 272 | 2.0 | 2.0 | 0.00 | 0.00 | 0.00 | 90 | 1013.3 |
| 20260906130220 | 80 | 284 | 2.0 | 2.0 | 0.00 | 0.00 | 0.00 | 91 | 1013.2 |
| 20260906125719 | 80 | 291 | 1.0 | 1.0 | 0.00 | 0.00 | 0.00 | 91 | 1013.2 |
| 20260906125217 | 80 | 266 | 1.0 | 1.0 | 0.00 | 0.00 | 0.00 | 92 | 1013.1 |
| 20260906124712 | 80 | 248 | 1.0 | 1.0 | 0.00 | 0.00 | 0.00 | 96 | 1013.1 |
| 20260906124208 | 79 | 311 | 0.0 | 1.0 | 0.00 | 0.00 | 0.00 | 97 | 1013.1 |
| 20260906123707 | 79 | 337 | 1.0 | 1.0 | 0.00 | 0.00 | 0.00 | 98 | 1013.0 |
| 20260906123202 | 78 | 327 | 1.0 | 1.0 | 0.00 | 0.00 | 0.00 | 98 | 1012.7 |
| 20260906122701 | 78 | 326 | 1.0 | 1.0 | 0.00 | 0.00 | 0.00 | 98 | 1012.9 |
| 20260906122157 | 77 | 286 | 1.0 | 1.0 | 0.00 | 0.00 | 0.00 | 98 | 1012.9 |
| 20260906121653 | 77 | 352 | 0.0 | 0.0 | 0.00 | 0.00 | 0.00 | 98 | 1012.7 |
| 20260906121149 | 76 | 352 | 0.0 | 0.0 | 0.00 | 0.00 | 0.00 | 98 | 1013.0 |
| 20260906120645 | 76 | 352 | 1.0 | 1.0 | 0.00 | 0.00 | 0.00 | 98 | 1012.8 |
| 20260906120142 | 76 | 352 | 0.0 | 0.0 | 0.00 | 0.00 | 0.00 | 98 | 1012.9 |
| 20260906115642 | 76 | 352 | 1.0 | 1.0 | 0.00 | 0.00 | 0.00 | 98 | 1013.0 |
| 20260906115138 | 76 | 352 | 2.0 | 2.0 | 0.00 | 0.00 | 0.00 | 98 | 1012.8 |
| 20260906114636 | 76 | 352 | 1.0 | 1.0 | 0.00 | 0.00 | 0.00 | 98 | 1012.9 |
| 20260906114131 | 75 | 352 | 1.0 | 1.0 | 0.00 | 0.00 | 0.00 | 98 | 1012.8 |
| 20260906113631 | 75 | 352 | 1.0 | 1.0 | 0.00 | 0.00 | 0.00 | 98 | 1012.9 |
| 20260906113126 | 75 | 352 | 1.0 | 1.0 | 0.00 | 0.00 | 0.00 | 98 | 1012.8 |
| 20260906112625 | 75 | 352 | 0.0 | 0.0 | 0.00 | 0.00 | 0.00 | 98 | 1012.8 |
| 20260906112123 | 75 | 352 | 0.0 | 0.0 | 0.00 | 0.00 | 0.00 | 98 | 1012.7 |
| 20260906111622 | 75 | 352 | 0.0 | 0.0 | 0.00 | 0.00 | 0.00 | 98 | 1012.7 |
| 20260906111117 | 75 | 352 | 0.0 | 0.0 | 0.00 | 0.00 | 0.00 | 98 | 1012.4 |
| 20260906110618 | 75 | 352 | 0.0 | 0.0 | 0.00 | 0.00 | 0.00 | 98 | 1012.5 |
| 20260906110118 | 75 | 352 | 0.0 | 0.0 | 0.00 | 0.00 | 0.00 | 98 | 1012.4 |
| 20260906105612 | 75 | 352 | 0.0 | 0.0 | 0.00 | 0.00 | 0.00 | 98 | 1012.6 |
| 20260906105109 | 75 | 352 | 0.0 | 0.0 | 0.00 | 0.00 | 0.00 | 98 | 1012.4 |
| 20260906104607 | 75 | 352 | 0.0 | 1.0 | 0.00 | 0.00 | 0.00 | 98 | 1012.6 |
| 20260906104101 | 75 | 352 | 0.0 | 0.0 | 0.00 | 0.00 | 0.00 | 98 | 1012.3 |
| 20260906103600 | 75 | 352 | 0.0 | 0.0 | 0.00 | 0.00 | 0.00 | 98 | 1012.4 |
| 20260906103056 | 75 | 352 | 0.0 | 0.0 | 0.00 | 0.00 | 0.00 | 98 | 1012.1 |
| 20260906102555 | 74 | 352 | 0.0 | 0.0 | 0.00 | 0.00 | 0.00 | 98 | 1012.0 |
| 20260906102050 | 74 | 352 | 0.0 | 0.0 | 0.00 | 0.00 | 0.00 | 98 | 1012.0 |
| 20260906101545 | 74 | 352 | 0.0 | 0.0 | 0.00 | 0.00 | 0.00 | 98 | 1012.1 |
| 20260906101039 | 75 | 352 | 0.0 | 0.0 | 0.00 | 0.00 | 0.00 | 98 | 1012.1 |
| 20260906100535 | 75 | 352 | 0.0 | 0.0 | 0.00 | 0.00 | 0.00 | 98 | 1012.1 |
| 20260906100035 | 74 | 352 | 0.0 | 0.0 | 0.00 | 0.00 | 0.00 | 98 | 1012.1 |
| 20260906095530 | 74 | 352 | 0.0 | 0.0 | 0.00 | 0.00 | 0.00 | 98 | 1011.8 |
| 20260906095026 | 74 | 352 | 0.0 | 0.0 | 0.00 | 0.00 | 0.00 | 98 | 1011.8 |
| 20260906094524 | 75 | 352 | 0.0 | 0.0 | 0.00 | 0.00 | 0.00 | 98 | 1011.9 |
| 20260906094020 | 75 | 352 | 0.0 | 0.0 | 0.00 | 0.00 | 0.00 | 98 | 1011.7 |
| 20260906093516 | 74 | 352 | 0.0 | 0.0 | 0.00 | 0.00 | 0.00 | 98 | 1011.8 |
| 20260906093017 | 75 | 352 | 0.0 | 0.0 | 0.00 | 0.00 | 0.00 | 98 | 1011.7 |
| 20260906092517 | 75 | 352 | 0.0 | 0.0 | 0.00 | 0.00 | 0.00 | 98 | 1011.8 |
| 20260906092012 | 75 | 352 | 0.0 | 0.0 | 0.00 | 0.00 | 0.00 | 98 | 1011.6 |
| 20260906091508 | 75 | 352 | 0.0 | 0.0 | 0.00 | 0.00 | 0.00 | 98 | 1011.6 |
| 20260906091004 | 75 | 352 | 0.0 | 0.0 | 0.00 | 0.00 | 0.00 | 98 | 1011.6 |
| 20260906090459 | 75 | 352 | 0.0 | 0.0 | 0.00 | 0.00 | 0.00 | 98 | 1011.5 |
| 20260906085959 | 75 | 352 | 0.0 | 0.0 | 0.00 | 0.00 | 0.00 | 98 | 1011.6 |
| 20260906085458 | 75 | 352 | 0.0 | 0.0 | 0.00 | 0.00 | 0.00 | 98 | 1011.7 |
| 20260906084957 | 75 | 352 | 0.0 | 0.0 | 0.00 | 0.00 | 0.00 | 98 | 1011.6 |
| 20260906084452 | 75 | 352 | 0.0 | 0.0 | 0.00 | 0.00 | 0.00 | 98 | 1011.5 |
| 20260906083951 | 75 | 352 | 0.0 | 0.0 | 0.00 | 0.00 | 0.00 | 98 | 1011.7 |
| 20260906083447 | 75 | 352 | 0.0 | 0.0 | 0.00 | 0.00 | 0.00 | 98 | 1011.3 |
| 20260906082946 | 75 | 352 | 0.0 | 0.0 | 0.00 | 0.00 | 0.00 | 98 | 1011.7 |
| 20260906082442 | 75 | 352 | 0.0 | 1.0 | 0.00 | 0.00 | 0.00 | 98 | 1011.5 |
| 20260906081937 | 75 | 352 | 0.0 | 0.0 | 0.00 | 0.00 | 0.00 | 98 | 1011.5 |
| 20260906081432 | 75 | 352 | 0.0 | 0.0 | 0.00 | 0.00 | 0.00 | 98 | 1011.7 |
| 20260906080929 | 75 | 352 | 1.0 | 1.0 | 0.00 | 0.00 | 0.00 | 98 | 1011.4 |
| 20260906080425 | 75 | 352 | 0.0 | 1.0 | 0.00 | 0.00 | 0.00 | 98 | 1011.4 |
| 20260906075925 | 75 | 353 | 1.0 | 2.0 | 0.00 | 0.00 | 0.00 | 98 | 1011.6 |
| 20260906075420 | 75 | 353 | 0.0 | 1.0 | 0.00 | 0.00 | 0.00 | 98 | 1011.5 |
| 20260906074915 | 75 | 353 | 1.0 | 1.0 | 0.00 | 0.00 | 0.00 | 98 | 1011.5 |
| 20260906074414 | 75 | 224 | 1.0 | 1.0 | 0.00 | 0.00 | 0.00 | 97 | 1011.5 |
| 20260906073914 | 75 | 224 | 1.0 | 1.0 | 0.00 | 0.00 | 0.00 | 97 | 1011.6 |
| 20260906073408 | 75 | 224 | 1.0 | 1.0 | 0.00 | 0.00 | 0.00 | 97 | 1011.6 |
| 20260906072905 | 75 | 224 | 0.0 | 0.0 | 0.00 | 0.00 | 0.00 | 97 | 1011.5 |
| 20260906072400 | 75 | 224 | 0.0 | 0.0 | 0.00 | 0.00 | 0.00 | 97 | 1011.7 |
| 20260906071856 | 75 | 224 | 0.0 | 0.0 | 0.00 | 0.00 | 0.00 | 97 | 1011.5 |
| 20260906071351 | 75 | 224 | 0.0 | 0.0 | 0.00 | 0.00 | 0.00 | 97 | 1011.5 |
| 20260906070847 | 75 | 224 | 0.0 | 0.0 | 0.00 | 0.00 | 0.00 | 97 | 1011.8 |
| 20260906070343 | 75 | 224 | 0.0 | 0.0 | 0.00 | 0.00 | 0.00 | 97 | 1011.7 |
| 20260906065838 | 75 | 224 | 0.0 | 0.0 | 0.00 | 0.00 | 0.00 | 97 | 1011.7 |
| 20260906065332 | 75 | 224 | 0.0 | 0.0 | 0.00 | 0.00 | 0.00 | 97 | 1011.7 |
| 20260906064829 | 75 | 224 | 0.0 | 0.0 | 0.00 | 0.00 | 0.00 | 97 | 1011.5 |
| 20260906064325 | 75 | 224 | 1.0 | 1.0 | 0.00 | 0.00 | 0.00 | 97 | 1011.8 |
| 20260906063824 | 75 | 224 | 1.0 | 1.0 | 0.00 | 0.00 | 0.00 | 97 | 1011.6 |
| 20260906063320 | 76 | 224 | 0.0 | 0.0 | 0.00 | 0.00 | 0.00 | 97 | 1011.5 |
| 20260906062815 | 75 | 223 | 0.0 | 0.0 | 0.00 | 0.00 | 0.00 | 97 | 1011.6 |
| 20260906062314 | 76 | 223 | 2.0 | 2.0 | 0.00 | 0.00 | 0.00 | 97 | 1011.6 |
| 20260906061810 | 75 | 224 | 0.0 | 0.0 | 0.00 | 0.00 | 0.00 | 97 | 1011.8 |
| 20260906061307 | 75 | 224 | 0.0 | 0.0 | 0.00 | 0.00 | 0.00 | 97 | 1012.0 |
| 20260906060807 | 75 | 224 | 0.0 | 0.0 | 0.00 | 0.00 | 0.00 | 97 | 1011.9 |
| 20260906060304 | 75 | 224 | 0.0 | 0.0 | 0.00 | 0.00 | 0.00 | 97 | 1012.0 |
| 20260906055800 | 75 | 224 | 1.0 | 1.0 | 0.00 | 0.00 | 0.00 | 97 | 1011.9 |
| 20260906055255 | 75 | 224 | 0.0 | 0.0 | 0.00 | 0.00 | 0.00 | 97 | 1012.0 |
| 20260906054750 | 76 | 224 | 1.0 | 1.0 | 0.00 | 0.00 | 0.00 | 97 | 1012.1 |
| 20260906054246 | 75 | 224 | 0.0 | 0.0 | 0.00 | 0.00 | 0.00 | 97 | 1012.1 |
| 20260906053742 | 75 | 224 | 0.0 | 0.0 | 0.00 | 0.00 | 0.00 | 97 | 1012.2 |
| 20260906053238 | 76 | 224 | 0.0 | 0.0 | 0.00 | 0.00 | 0.00 | 97 | 1012.3 |
| 20260906052732 | 76 | 224 | 0.0 | 0.0 | 0.00 | 0.00 | 0.00 | 97 | 1012.3 |
| 20260906052229 | 76 | 224 | 0.0 | 0.0 | 0.00 | 0.00 | 0.00 | 97 | 1012.0 |
| 20260906051725 | 76 | 224 | 0.0 | 0.0 | 0.00 | 0.00 | 0.00 | 97 | 1012.1 |
| 20260906051225 | 76 | 224 | 0.0 | 0.0 | 0.00 | 0.00 | 0.00 | 97 | 1012.2 |
| 20260906050720 | 76 | 224 | 0.0 | 0.0 | 0.00 | 0.00 | 0.00 | 96 | 1012.1 |
| 20260906050215 | 75 | 224 | 0.0 | 0.0 | 0.00 | 0.00 | 0.00 | 96 | 1012.2 |
| 20260906045714 | 75 | 224 | 0.0 | 0.0 | 0.00 | 0.28 | 0.28 | 96 | 1012.5 |
| 20260906045209 | 76 | 224 | 0.0 | 0.0 | 0.00 | 0.28 | 0.28 | 96 | 1012.3 |
| 20260906044705 | 76 | 224 | 0.0 | 0.0 | 0.00 | 0.28 | 0.28 | 96 | 1012.3 |
| 20260906044200 | 76 | 224 | 0.0 | 0.0 | 0.00 | 0.28 | 0.28 | 96 | 1012.4 |
| 20260906043656 | 76 | 224 | 0.0 | 0.0 | 0.00 | 0.28 | 0.28 | 96 | 1012.5 |
| 20260906043151 | 76 | 224 | 0.0 | 1.0 | 0.00 | 0.28 | 0.28 | 96 | 1012.2 |
| 20260906042651 | 76 | 224 | 0.0 | 0.0 | 0.00 | 0.28 | 0.28 | 96 | 1012.2 |
| 20260906042150 | 76 | 224 | 0.0 | 0.0 | 0.00 | 0.28 | 0.28 | 96 | 1012.2 |
| 20260906041647 | 76 | 224 | 0.0 | 0.0 | 0.00 | 0.28 | 0.28 | 96 | 1012.4 |
| 20260906041141 | 76 | 224 | 0.0 | 0.0 | 0.00 | 0.28 | 0.28 | 96 | 1012.3 |
| 20260906040637 | 76 | 224 | 0.0 | 0.0 | 0.00 | 0.28 | 0.28 | 96 | 1012.4 |
| 20260906040132 | 76 | 224 | 0.0 | 0.0 | 0.00 | 0.28 | 0.28 | 96 | 1012.6 |
| 20260906035627 | 76 | 224 | 0.0 | 0.0 | 0.00 | 0.28 | 0.28 | 96 | 1012.7 |
| 20260906035123 | 76 | 224 | 0.0 | 0.0 | 0.00 | 0.28 | 0.28 | 95 | 1012.7 |
| 20260906034623 | 76 | 224 | 0.0 | 1.0 | 0.00 | 0.28 | 0.28 | 95 | 1012.9 |
| 20260906034118 | 76 | 224 | 0.0 | 1.0 | 0.00 | 0.28 | 0.28 | 95 | 1012.9 |
| 20260906033614 | 76 | 224 | 1.0 | 1.0 | 0.00 | 0.28 | 0.28 | 95 | 1012.9 |
| 20260906033108 | 76 | 223 | 0.0 | 0.0 | 0.00 | 0.28 | 0.28 | 95 | 1012.6 |
| 20260906032606 | 76 | 223 | 0.0 | 0.0 | 0.00 | 0.28 | 0.28 | 95 | 1012.9 |
| 20260906032105 | 76 | 223 | 0.0 | 0.0 | 0.00 | 0.28 | 0.28 | 95 | 1012.9 |
| 20260906031601 | 76 | 223 | 0.0 | 0.0 | 0.00 | 0.28 | 0.28 | 95 | 1013.1 |
| 20260906031056 | 76 | 223 | 0.0 | 0.0 | 0.00 | 0.28 | 0.28 | 95 | 1013.1 |
| 20260906030555 | 77 | 224 | 0.0 | 0.0 | 0.00 | 0.28 | 0.28 | 95 | 1013.0 |
| 20260906030055 | 77 | 224 | 0.0 | 0.0 | 0.00 | 0.28 | 0.28 | 95 | 1012.9 |
| 20260906025555 | 77 | 224 | 0.0 | 0.0 | 0.00 | 0.28 | 0.28 | 95 | 1012.6 |
| 20260906025054 | 77 | 224 | 0.0 | 0.0 | 0.00 | 0.28 | 0.28 | 95 | 1012.8 |
| 20260906024549 | 77 | 224 | 0.0 | 0.0 | 0.00 | 0.28 | 0.28 | 95 | 1012.8 |
| 20260906024049 | 77 | 224 | 0.0 | 0.0 | 0.00 | 0.28 | 0.28 | 95 | 1013.0 |
| 20260906023545 | 77 | 223 | 0.0 | 0.0 | 0.00 | 0.28 | 0.28 | 95 | 1012.8 |
| 20260906023040 | 77 | 224 | 0.0 | 0.0 | 0.00 | 0.28 | 0.28 | 95 | 1012.9 |
| 20260906022535 | 77 | 223 | 0.0 | 1.0 | 0.00 | 0.28 | 0.28 | 95 | 1012.8 |
| 20260906022030 | 77 | 223 | 0.0 | 1.0 | 0.00 | 0.28 | 0.28 | 95 | 1012.7 |
| 20260906021526 | 77 | 224 | 0.0 | 1.0 | 0.00 | 0.28 | 0.28 | 95 | 1012.5 |
| 20260906021020 | 77 | 223 | 1.0 | 1.0 | 0.00 | 0.28 | 0.28 | 95 | 1012.5 |
| 20260906020519 | 77 | 223 | 0.0 | 0.0 | 0.00 | 0.28 | 0.28 | 95 | 1012.4 |
| 20260906020019 | 77 | 223 | 0.0 | 0.0 | 0.00 | 0.28 | 0.28 | 95 | 1012.5 |
| 20260906015518 | 77 | 223 | 0.0 | 0.0 | 0.00 | 0.28 | 0.28 | 95 | 1012.4 |
| 20260906015018 | 77 | 223 | 0.0 | 0.0 | 0.00 | 0.28 | 0.28 | 95 | 1012.4 |
| 20260906014513 | 77 | 223 | 0.0 | 0.0 | 0.00 | 0.28 | 0.28 | 95 | 1012.2 |
| 20260906014009 | 77 | 223 | 0.0 | 0.0 | 0.00 | 0.28 | 0.28 | 94 | 1012.3 |
| 20260906013504 | 78 | 223 | 0.0 | 0.0 | 0.00 | 0.28 | 0.28 | 94 | 1012.1 |
| 20260906012959 | 78 | 223 | 0.0 | 0.0 | 0.00 | 0.28 | 0.28 | 94 | 1011.9 |
| 20260906012454 | 78 | 223 | 0.0 | 0.0 | 0.00 | 0.28 | 0.28 | 94 | 1011.9 |
| 20260906011954 | 78 | 223 | 0.0 | 1.0 | 0.00 | 0.28 | 0.28 | 94 | 1011.5 |
| 20260906011449 | 78 | 223 | 1.0 | 1.0 | 0.00 | 0.28 | 0.28 | 94 | 1011.6 |
| 20260906010944 | 78 | 223 | 0.0 | 0.0 | 0.00 | 0.28 | 0.28 | 94 | 1011.6 |
| 20260906010440 | 78 | 223 | 0.0 | 0.0 | 0.00 | 0.28 | 0.28 | 93 | 1011.7 |
| 20260906005936 | 78 | 223 | 0.0 | 0.0 | 0.00 | 0.28 | 0.28 | 93 | 1011.4 |
| 20260906005436 | 78 | 223 | 0.0 | 0.0 | 0.00 | 0.28 | 0.28 | 93 | 1011.4 |
| 20260906004934 | 78 | 223 | 0.0 | 0.0 | 0.00 | 0.28 | 0.28 | 92 | 1011.3 |
| 20260906004428 | 79 | 224 | 0.0 | 0.0 | 0.00 | 0.28 | 0.28 | 92 | 1011.1 |
| 20260906003924 | 79 | 224 | 0.0 | 0.0 | 0.00 | 0.28 | 0.28 | 92 | 1011.3 |
| 20260906003419 | 79 | 224 | 0.0 | 0.0 | 0.00 | 0.28 | 0.28 | 91 | 1011.1 |
| 20260906002915 | 79 | 224 | 0.0 | 0.0 | 0.00 | 0.28 | 0.28 | 91 | 1011.2 |
| 20260906002414 | 79 | 224 | 1.0 | 1.0 | 0.00 | 0.28 | 0.28 | 91 | 1011.3 |
| 20260906001909 | 79 | 224 | 0.0 | 0.0 | 0.00 | 0.28 | 0.28 | 90 | 1011.2 |
| 20260906001405 | 80 | 224 | 0.0 | 0.0 | 0.00 | 0.28 | 0.28 | 90 | 1011.2 |
| 20260906000905 | 80 | 223 | 0.0 | 1.0 | 0.00 | 0.28 | 0.28 | 90 | 1011.5 |
| 20260906000400 | 80 | 223 | 0.0 | 0.0 | 0.00 | 0.28 | 0.28 | 89 | 1011.3 |
| 20260905235855 | 80 | 223 | 0.0 | 0.0 | 0.00 | 0.28 | 0.28 | 89 | 1011.2 |
| 20260905235355 | 80 | 223 | 0.0 | 0.0 | 0.00 | 0.28 | 0.28 | 88 | 1011.3 |
| 20260905234850 | 80 | 230 | 1.0 | 1.0 | 0.00 | 0.28 | 0.28 | 87 | 1011.4 |
| 20260905234346 | 81 | 217 | 0.0 | 0.0 | 0.00 | 0.28 | 0.28 | 87 | 1011.5 |
| 20260905233840 | 81 | 217 | 0.0 | 0.0 | 0.00 | 0.28 | 0.28 | 86 | 1011.5 |
| 20260905233335 | 81 | 217 | 0.0 | 0.0 | 0.00 | 0.28 | 0.28 | 86 | 1011.4 |
| 20260905232834 | 81 | 217 | 0.0 | 0.0 | 0.00 | 0.28 | 0.28 | 85 | 1011.6 |
| 20260905232331 | 81 | 217 | 0.0 | 1.0 | 0.00 | 0.28 | 0.28 | 85 | 1011.6 |
| 20260905231826 | 81 | 217 | 0.0 | 0.0 | 0.00 | 0.28 | 0.28 | 85 | 1011.5 |
| 20260905231321 | 81 | 216 | 2.0 | 3.0 | 0.00 | 0.28 | 0.28 | 85 | 1011.7 |
| 20260905230818 | 81 | 221 | 0.0 | 1.0 | 0.00 | 0.28 | 0.28 | 84 | 1011.7 |
| 20260905230315 | 81 | 212 | 1.0 | 1.0 | 0.00 | 0.28 | 0.28 | 84 | 1011.8 |
| 20260905225815 | 81 | 186 | 0.0 | 0.0 | 0.00 | 0.28 | 0.28 | 83 | 1011.7 |
| 20260905225310 | 81 | 186 | 1.0 | 1.0 | 0.00 | 0.28 | 0.28 | 83 | 1011.7 |
| 20260905224810 | 81 | 185 | 0.0 | 0.0 | 0.00 | 0.28 | 0.28 | 82 | 1011.7 |
| 20260905224306 | 81 | 184 | 0.0 | 1.0 | 0.00 | 0.28 | 0.28 | 82 | 1011.7 |
| 20260905223801 | 81 | 187 | 2.0 | 2.0 | 0.00 | 0.28 | 0.28 | 81 | 1011.6 |
| 20260905223258 | 82 | 191 | 2.0 | 3.0 | 0.00 | 0.28 | 0.28 | 80 | 1011.7 |
| 20260905222753 | 82 | 195 | 2.0 | 3.0 | 0.00 | 0.28 | 0.28 | 79 | 1011.7 |
| 20260905222252 | 82 | 182 | 1.0 | 1.0 | 0.00 | 0.28 | 0.28 | 79 | 1011.6 |
| 20260905221748 | 83 | 232 | 1.0 | 1.0 | 0.00 | 0.28 | 0.28 | 77 | 1011.7 |
| 20260905221244 | 83 | 174 | 2.0 | 2.0 | 0.00 | 0.28 | 0.28 | 77 | 1011.7 |
| 20260905220740 | 83 | 222 | 2.0 | 2.0 | 0.00 | 0.28 | 0.28 | 78 | 1011.7 |
| 20260905220236 | 84 | 203 | 0.0 | 1.0 | 0.00 | 0.28 | 0.28 | 78 | 1011.7 |
| 20260905215735 | 84 | 204 | 0.0 | 0.0 | 0.00 | 0.28 | 0.28 | 77 | 1011.7 |
| 20260905215231 | 85 | 235 | 2.0 | 2.0 | 0.00 | 0.28 | 0.28 | 76 | 1011.9 |
| 20260905214727 | 85 | 248 | 1.0 | 1.0 | 0.00 | 0.28 | 0.28 | 73 | 1011.8 |
| 20260905214222 | 85 | 266 | 0.0 | 0.0 | 0.00 | 0.28 | 0.28 | 73 | 1011.7 |
| 20260905213718 | 86 | 266 | 0.0 | 0.0 | 0.00 | 0.28 | 0.28 | 74 | 1011.9 |
| 20260905213214 | 86 | 266 | 1.0 | 1.0 | 0.00 | 0.28 | 0.28 | 72 | 1011.9 |
| 20260905212709 | 86 | 266 | 0.0 | 0.0 | 0.00 | 0.28 | 0.28 | 70 | 1012.1 |
| 20260905212208 | 86 | 266 | 1.0 | 1.0 | 0.00 | 0.28 | 0.28 | 69 | 1012.2 |
| 20260905211702 | 86 | 258 | 1.0 | 1.0 | 0.00 | 0.28 | 0.28 | 68 | 1012.1 |
| 20260905211158 | 86 | 342 | 1.0 | 1.0 | 0.00 | 0.28 | 0.28 | 69 | 1011.9 |
| 20260905210655 | 86 | 346 | 2.0 | 2.0 | 0.00 | 0.28 | 0.28 | 69 | 1011.8 |
| 20260905210154 | 85 | 344 | 2.0 | 2.0 | 0.00 | 0.28 | 0.28 | 69 | 1011.8 |
| 20260905205653 | 86 | 57 | 2.0 | 2.0 | 0.00 | 0.28 | 0.28 | 68 | 1012.0 |
| 20260905205153 | 87 | 358 | 6.0 | 7.0 | 0.00 | 0.28 | 0.28 | 67 | 1011.9 |
| 20260905204652 | 86 | 349 | 3.0 | 3.0 | 0.00 | 0.28 | 0.28 | 67 | 1011.9 |
| 20260905204148 | 87 | 3 | 3.0 | 3.0 | 0.00 | 0.28 | 0.28 | 65 | 1011.9 |
| 20260905203642 | 87 | 28 | 5.0 | 6.0 | 0.00 | 0.28 | 0.28 | 67 | 1011.9 |
| 20260905203138 | 87 | 15 | 4.0 | 6.0 | 0.00 | 0.28 | 0.28 | 67 | 1011.8 |
| 20260905202634 | 88 | 350 | 3.0 | 4.0 | 0.00 | 0.28 | 0.28 | 67 | 1011.7 |
| 20260905202129 | 86 | 8 | 4.0 | 7.0 | 0.00 | 0.28 | 0.28 | 69 | 1011.9 |
| 20260905201624 | 86 | 30 | 6.0 | 7.0 | 0.00 | 0.28 | 0.28 | 71 | 1012.2 |
| 20260905201124 | 85 | 9 | 5.0 | 6.0 | 0.00 | 0.28 | 0.28 | 75 | 1012.2 |
| 20260905200620 | 84 | 15 | 6.0 | 8.0 | 0.00 | 0.28 | 0.28 | 78 | 1012.7 |
| 20260905200115 | 84 | 35 | 8.0 | 10.0 | 0.00 | 0.28 | 0.28 | 80 | 1012.7 |
| 20260905195613 | 84 | 346 | 9.0 | 10.0 | 0.00 | 0.28 | 0.28 | 80 | 1012.6 |
| 20260905195109 | 84 | 337 | 8.0 | 10.0 | 0.00 | 0.28 | 0.28 | 78 | 1012.8 |
| 20260905194609 | 87 | 352 | 11.0 | 15.0 | 0.00 | 0.28 | 0.28 | 72 | 1012.7 |
| 20260905194108 | 92 | 11 | 8.0 | 10.0 | 0.00 | 0.28 | 0.28 | 64 | 1012.8 |
| 20260905193603 | 92 | 25 | 1.0 | 2.0 | 0.00 | 0.28 | 0.28 | 64 | 1012.7 |
| 20260905193058 | 94 | 47 | 2.0 | 2.0 | 0.00 | 0.28 | 0.28 | 58 | 1012.7 |
| 20260905192553 | 94 | 241 | 1.0 | 1.0 | 0.00 | 0.28 | 0.28 | 61 | 1012.7 |
| 20260905192049 | 93 | 249 | 0.0 | 0.0 | 0.00 | 0.28 | 0.28 | 63 | 1012.7 |
| 20260905191548 | 93 | 239 | 2.0 | 3.0 | 0.00 | 0.28 | 0.28 | 63 | 1012.8 |
| 20260905191042 | 92 | 335 | 2.0 | 3.0 | 0.00 | 0.28 | 0.28 | 63 | 1012.8 |
| 20260905190540 | 91 | 218 | 2.0 | 2.0 | 0.00 | 0.28 | 0.28 | 64 | 1012.9 |
| 20260905190039 | 91 | 230 | 2.0 | 2.0 | 0.00 | 0.28 | 0.28 | 65 | 1012.9 |
| 20260905185539 | 89 | 257 | 2.0 | 3.0 | 0.00 | 0.28 | 0.28 | 69 | 1013.1 |
| 20260905185039 | 88 | 209 | 0.0 | 1.0 | 0.00 | 0.28 | 0.28 | 72 | 1013.2 |
| 20260905184539 | 89 | 236 | 1.0 | 2.0 | 0.00 | 0.28 | 0.28 | 70 | 1013.0 |
| 20260905184038 | 90 | 185 | 2.0 | 2.0 | 0.00 | 0.28 | 0.28 | 71 | 1013.2 |
| 20260905183537 | 91 | 244 | 1.0 | 1.0 | 0.00 | 0.28 | 0.28 | 67 | 1013.2 |
| 20260905183033 | 91 | 284 | 1.0 | 1.0 | 0.00 | 0.28 | 0.28 | 66 | 1013.3 |
| 20260905182533 | 90 | 278 | 0.0 | 1.0 | 0.00 | 0.28 | 0.28 | 71 | 1013.1 |
| 20260905182032 | 89 | 276 | 1.0 | 1.0 | 0.00 | 0.28 | 0.28 | 69 | 1013.2 |
| 20260905181527 | 87 | 287 | 1.0 | 1.0 | 0.00 | 0.28 | 0.28 | 72 | 1013.1 |
| 20260905181027 | 86 | 151 | 1.0 | 2.0 | 0.00 | 0.28 | 0.28 | 73 | 1013.4 |
| 20260905180521 | 84 | 152 | 1.0 | 1.0 | 0.00 | 0.28 | 0.28 | 77 | 1013.5 |
| 20260905180017 | 83 | 159 | 2.0 | 2.0 | 0.00 | 0.28 | 0.28 | 87 | 1013.7 |
| 20260905175516 | 82 | 137 | 2.0 | 3.0 | 0.00 | 0.28 | 0.28 | 91 | 1013.6 |
| 20260905175012 | 81 | 147 | 2.0 | 2.0 | 0.07 | 0.28 | 0.28 | 89 | 1013.8 |
| 20260905174507 | 81 | 94 | 1.0 | 2.0 | 0.19 | 0.28 | 0.28 | 92 | 1014.0 |
| 20260905174003 | 81 | 113 | 1.0 | 2.0 | 0.42 | 0.27 | 0.27 | 92 | 1014.1 |
| 20260905173459 | 80 | 149 | 1.0 | 2.0 | 0.38 | 0.26 | 0.26 | 91 | 1014.0 |
| 20260905172954 | 81 | 172 | 2.0 | 2.0 | 0.07 | 0.21 | 0.21 | 90 | 1014.3 |
| 20260905172452 | 81 | 130 | 3.0 | 4.0 | 0.05 | 0.20 | 0.20 | 89 | 1014.1 |
| 20260905171948 | 80 | 139 | 1.0 | 1.0 | 0.12 | 0.20 | 0.20 | 91 | 1014.4 |
| 20260905171444 | 80 | 108 | 0.0 | 1.0 | 0.19 | 0.19 | 0.19 | 91 | 1014.5 |
| 20260905170940 | 79 | 95 | 1.0 | 2.0 | 0.12 | 0.18 | 0.18 | 91 | 1014.6 |
| 20260905170436 | 79 | 119 | 4.0 | 4.0 | 0.00 | 0.16 | 0.16 | 91 | 1014.6 |
| 20260905165936 | 79 | 135 | 3.0 | 4.0 | 0.00 | 0.16 | 0.16 | 91 | 1014.6 |